Location: Mahannah Oil Field
(37.4664°N, 96.6003°W)
Time: 15:11:05
(UTC+00:00)

Altair - Pass Details

Date: 24 January 2021
Orbit: 1501 x 1682 km, 47.2° (Epoch: 05 March)

Event Time Altitude Azimuth Distance (km) Brightness Sun altitude
Exits shadow 12:55:28 - 264° (W) 4,344 9.3 -8.3°
Reaches altitude 10° 12:56:56 10° 266° (W) 3,908 9.0 -8.0°
Maximum altitude 13:06:48 56° 344° (NNW) 1,938 7.9 -6.1°
Drops below altitude 10° 13:16:47 10° 61° (ENE) 3,940 10.3 -4.3°
Sets 13:20:04 0° 66° (ENE) 4,919 10.9 -3.7°
